Other Public Products
Issued by NWS Charleston, SC

Current Version | Previous Version | Text Only | Print | Product List | Glossary Off
Versions: 1 2 3 4 5 6 7 8 9 10 11 12 13 14 15 16 17 18 19 20 21 22 23 24 25 26 27 28 29 30 31 32 33 34 35 36 37 38 39 40 41 42 43 44 45 46 47 48 49 50
000 FPUS82 KCHS 200912 OPUCHS TEST...KCHS/KSAV Gateway Observations...TEST National Weather Service Charleston SC 400 AM EST MON NOV 20 2017 NOTE: "fair" indicates few or no clouds below 12,000 feet with no significant weather and/or obstructions to visibility. SCZ050-WAZ558-NCZ071-TXZ119-213-PAZ071-DCZ001-FLZ074-172-MI076- NYZ176-178-MAZ016-IL014-TNZ027-NJZ106-GAZ044-MD014-201000- ...Gateway Observations for Charleston International... CITY SKY/WX TMP DP RH WIND PRES REMARKS Chas Airport PTCLDY 41 32 70 N5 30.15R Seattle CLOUDY 45 43 93 SE7 29.60S FOG Charlotte CLEAR 30 29 96 CALM 30.15R Dallas DFW CLOUDY 44 32 62 CALM 30.17F Dallas Love CLOUDY 48 29 47 S5 30.19F Philladelphia MOCLDY 40 23 50 W22G30 29.99R WCI 30 Wash National MOCLDY 42 21 43 NW14G20 30.07R Baltimore MOCLDY 40 24 53 W14G21 30.04S WCI 32 Miami PTCLDY 71 68 90 VRB5 29.99R Detroit MOCLDY 29 22 75 SW10 30.03R WCI 20 Newark PTCLDY 37 25 61 W15 29.92R WCI 28 Laguardia MOCLDY 40 25 55 W15G24 29.90R WCI 32 J F K MOCLDY 39 25 57 W14 29.92R WCI 31 Boston Logan PTCLDY 37 23 56 W14G24 29.73R WCI 28 Ft. Lauderdale CLEAR 69 68 96 N10 29.98R Chicago O`Hare PTCLDY 32 22 66 SW12 30.00S WCI 23 Chicago Midway PTCLDY 32 23 69 SW9 30.01F WCI 24 Houston Bush CLOUDY 44 39 82 CALM 30.21F Houston Hobby PTCLDY 50 37 61 NE6 30.20F Nashville CLOUDY 29 26 89 CALM 30.25F Atlanta CLEAR 35 28 75 NW9 30.17R WCI 28 $$ GAZ044-118-TXZ119-213-NCZ071-DCZ001-MDZ014-506-PAZ021-071-NJZ106- NYZ176-178-MAZ106-OHZ011-021-055-MIZ076-KYZ091-ILZ014-INZ047- MNZ060-ONZ431-201000- ...Gateway Observations for Savannah International... CITY SKY/WX TMP DP RH WIND PRES REMARKS Savannah Arpt CLEAR 39 34 82 N3 30.17R Atlanta CLEAR 35 28 75 NW9 30.17R WCI 28 Charlotte CLEAR 30 29 96 CALM 30.15R Dallas DFW CLOUDY 44 32 62 CALM 30.17F Houston Bush CLOUDY 44 39 82 CALM 30.21F Wash National MOCLDY 42 21 43 NW14G20 30.07R Wash Dulles PTCLDY 38 20 48 NW21G30 30.06S WCI 28 Baltimore MOCLDY 40 24 53 W14G21 30.04S WCI 32 Philadelphia MOCLDY 40 23 50 W22G30 29.99R WCI 30 Newark PTCLDY 37 25 61 W15 29.92R WCI 28 Laguardia MOCLDY 40 25 55 W15G24 29.90R WCI 32 J F K MOCLDY 39 25 57 W14 29.92R WCI 31 Boston PTCLDY 37 23 56 W14G24 29.73R WCI 28 Pittsburg CLOUDY 31 23 72 W9G18 30.07S WCI 23 Akron MOCLDY 29 21 72 W10 30.08R WCI 20 Cleveland MOCLDY 31 24 75 SW13 30.10S WCI 21 Cincinnati PTCLDY 25 23 92 SW6 30.17S WCI 18 Columbus CLEAR 26 24 93 S8 30.16F WCI 17 Detroit MOCLDY 29 22 75 SW10 30.03R WCI 20 Chicago O`Hare PTCLDY 32 22 66 SW12 30.00S WCI 23 Minneapolis PTCLDY 32 27 81 S5 29.76S WCI 27 Indianapolis CLOUDY 25 20 81 S6 30.15F WCI 18 Toronto Canada CLOUDY 30 21 69 W17 29.89S WCI 18 $$

USA.gov is the U.S. government's official web portal to all federal, state and local government web resources and services.